Regional Weather Roundup
Issued by NWS

Home | Current Version | Previous Version | Text Only | Print | Product List | Glossary On
Versions: 1 2 3 4 5 6 7 8 9 10 11 12 13 14 15 16 17 18 19 20 21 22 23 24 25 26 27 28 29 30 31 32 33 34 35 36 37 38 39 40 41 42 43 44 45 46
000
ASUS45 KBOU 271207
RWRCO

WEATHER ROUNDUP FOR COLORADO
NATIONAL WEATHER SERVICE DENVER/BOULDER CO
500 AM MST FRI FEB 27 2015

NOTE: "FAIR" INDICATES FEW OR NO CLOUDS BELOW 12000 FEET WITH NO
SIGNIFICANT WEATHER AND/OR OBSTRUCTIONS TO VISIBILITY.

COZ001>005-013-030-031-271300-
...NORTHWEST COLORADO...

CITY           SKY/WX    TMP DP  RH WIND       PRES   REMARKS
CRAIG          MOCLDY     9   4  80 CALM      29.87S
HAYDEN         CLOUDY    12   9  85 W6        29.83S WCI   3
MEEKER         MOCLDY     9   5  84 NE3       29.82S
MOUNT WERNER   NOT AVBL
STEAMBOAT SPGS NOT AVBL
WALDEN         PTCLDY    -9 -17  70 SE5       29.78F WCI -21
$$

COZ006>008-011-271300-
...WEST CENTRAL VALLEYS...

CITY           SKY/WX    TMP DP  RH WIND       PRES   REMARKS
GRAND JUNCTION CLOUDY    30  29  96 E5        29.82R WCI  25
MONTROSE       PTCLDY    21  17  84 S9        29.82F WCI  11
EAGLE          CLOUDY    25  21  86 CALM      29.81S
RIFLE          CLOUDY    26  18  71 NW3       29.81S
DELTA          MOCLDY    31  28  90 CALM      29.82S
NUCLA          CLOUDY    28  27  93 E5        29.85S WCI  23
$$

COZ017>023-064>068-271300-
...SOUTHWEST COLORADO...

CITY           SKY/WX    TMP DP  RH WIND       PRES   REMARKS
DURANGO        CLOUDY    21  20  96 N5        29.82R WCI  15
CORTEZ         CLOUDY    27  26  96 CALM      29.84F
PAGOSA SPRINGS CLOUDY    26  26 100 S6        29.80S WCI  19
TELLURIDE      FLURRIES  19  17  94 CALM      29.78R
WOLF CREEK PAS SNOW       9   9 100 SW20G26   29.74S VSB 1/4 WCI -11
$$

COZ009-010-012-014-032>034-037-058>063-271300-
...CENTRAL COLORADO...

CITY           SKY/WX    TMP DP  RH WIND       PRES   REMARKS
ASPEN          FLURRIES  18  15  88 CALM      29.74S
BUENA VISTA    LGT SNOW   1  -4  79 CALM      29.87S
COPPER MTN     NOT AVBL
BERTHOUD PASS  HAZE      -2  -8  78 NW20      29.61F VSB 1/4 WCI -25
COTTONWOOD PAS NOT AVBL
GUNNISON       CLOUDY    16  10  79 CALM      29.79S
KREMMLING      CLOUDY    10   5  79 CALM      29.82S
LEADVILLE      LGT SNOW  -4  -9  79 CALM      29.72S
SALIDA         CLOUDY     6   1  81 SE7       29.97S WCI  -6
SUNLIGHT       LGT SNOW  14  12  92 CALM        N/A  VSB 3/4
WILKERSON PASS CLOUDY     3   0  85 W9        29.68F WCI -11
$$

COZ069>075-271300-
...SAN LUIS VALLEY/SANGRE DE CRISTO MOUNTAINS...

CITY           SKY/WX    TMP DP  RH WIND       PRES   REMARKS
ALAMOSA        LGT SNOW  16  11  80 S14       29.80R WCI   2
LA VETA PASS   LGT SNOW   3   0  85 MISG      29.74R VSB 1
SAGUACHE       LGT SNOW  14  12  92 CALM      29.81R
$$

COZ035-036-038>040-271300-
...NORTHERN COLORADO FRONT RANGE...

CITY           SKY/WX    TMP DP  RH WIND       PRES   REMARKS
DENVER INTL AP PTCLDY    -3  -8  79 S13       30.01F WCI -22
DMNS CITY PARK   N/A      7   5  90 NW2       30.01S
AURORA         PTCLDY     0  -5  77 S10       30.00F WCI -16
FRONT RANGE AP NOT AVBL
ERIE MUNI ARPT NOT AVBL
BOULDER MUN AP NOT AVBL
CENTENNIAL     MOCLDY     1  -3  83 S8        29.98F WCI -13
BROOMFIELD     LGT SNOW   5   3  92 W5        30.00S WCI  -4
FORT COLLINS   PTCLDY     1   0  92 NW5       30.04S WCI  -8
LONGMONT       NOT AVBL
$$

COZ041-046-047-076>085-087-088-271300-
...PIKES PEAK/PALMER DIVIDE AND SOUTHERN FOOTHILLS...

CITY           SKY/WX    TMP DP  RH WIND       PRES   REMARKS
COLO. SPRINGS  LGT SNOW   6   3  87 SE9       30.01S FOG     WCI  -8
A. F. ACADEMY  CLOUDY     4   0  82 SE13      29.96S WCI -12
ELLICOTT       NOT AVBL
FALCON         NOT AVBL
FORT CARSON    CLOUDY     6   3  87 SE9       30.01F WCI  -7
LIMON          CLOUDY     5   3  91 SE14      30.07S FOG     WCI -12
MONUMENT HILL  CLOUDY     3   0  85 S22       29.89S FOG     WCI -19
TRINIDAD       LGT SNOW   9   5  84 N8        30.01S FOG     WCI  -3
$$

COZ042>045-048>051-090-091-271300-
...NORTHEAST COLORADO...

CITY           SKY/WX    TMP DP  RH WIND       PRES   REMARKS
GREELEY ARPT   PTCLDY     7  -2  66 SE8       30.06S WCI  -6
AKRON          CLOUDY     7   5  91 SE14      30.12F WCI -10
BURLINGTON     LGT SNOW  11   6  81 SE16      30.20S WCI  -6
WRAY           LGT SNOW  10   6  83 E10       30.26S WCI  -4
STERLING       NOT AVBL
HOLYOKE        NOT AVBL
FORT MORGAN    FLURRIES   7   4  88 E10       30.13F WCI  -8
$$

COZ086-089-092>099-271300-
...SOUTHEAST COLORADO...

CITY           SKY/WX    TMP DP  RH WIND       PRES   REMARKS
PUEBLO         LGT SNOW  10   8  92 NE6       30.10F FOG     WCI   0
LA JUNTA       LGT SNOW  14  10  84 SE22      30.15S FOG     WCI  -4
LAMAR          LGT SNOW  13  52 100 SE17G24   30.22S WCI  -4
SPRINGFIELD      N/A      9   6  88 SE20      30.19R WCI -10
$$



USA.gov is the U.S. government's official web portal to all federal, state and local government web resources and services.